Location: Caltech
(34.1382°N, 118.1253°W)
Time: 12:21:13
(UTC-07:00)

Iridium 21 - Visible Passes

Search period start: 18 April 2015 00:00
Search period end: 28 April 2015 00:00
Orbit: 776 x 779 km, 86.4° (Epoch: 18 April)

Date Brightness Start Highest point End Pass type
(mag) Time Alt. Az. Time Alt. Az. Time Alt. Az.
18 Apr 8.5 00:15:42 11° N 00:15:42 11° N 00:15:51 10° N visible
20 Apr 8.5 00:48:57 11° NNW 00:48:57 11° NNW 00:49:04 10° NNW visible
21 Apr 8.3 00:15:19 13° N 00:15:19 13° N 00:15:55 10° N visible
21 Apr 8.2 23:41:42 14° N 23:41:42 14° N 23:42:21 10° N visible
22 Apr 8.2 23:08:04 11° NNE 23:08:04 11° NNE 23:08:23 10° NNE visible
23 Apr 8.4 00:48:32 11° NNW 00:48:32 11° NNW 00:48:40 10° NNW visible
24 Apr 8.2 00:14:54 15° NNW 00:14:54 15° NNW 00:15:50 10° NNW visible
24 Apr 7.9 23:41:14 18° N 23:41:14 18° N 23:42:30 10° N visible
25 Apr 7.8 23:07:35 17° NNE 23:07:35 17° NNE 23:08:47 10° NNE visible
26 Apr 7.9 22:33:54 13° NE 22:33:54 13° NE 22:34:35 10° NNE visible
27 Apr 8.1 00:14:21 16° NNW 00:14:21 16° NNW 00:15:33 10° NNW visible
27 Apr 7.7 23:40:40 22° NNW 23:40:40 22° NNW 23:42:30 10° N visible
